Time,TemperatureF,DewpointF,PressureIn,WindDirection,WindDirectionDegrees,WindSpeedMPH,WindSpeedGustMPH,Humidity,HourlyPrecipIn,Conditions,Clouds,dailyrainin,SoftwareType,DateUTC
2013-12-22 00:12:00,18.0,15.0,29.94,East,89,0.0,1.0,87,0.00,,,0.00,,2013-12-22 06:12:00,
2013-12-22 00:22:00,19.0,16.0,29.96,ESE,113,0.0,3.0,87,0.00,,,0.00,,2013-12-22 06:22:00,
2013-12-22 00:42:00,19.0,16.0,29.96,NE,49,0.0,1.0,87,0.00,,,0.00,,2013-12-22 06:42:00,
2013-12-22 00:52:00,19.0,16.0,29.95,NE,49,0.0,1.0,86,0.00,,,0.00,,2013-12-22 06:52:00,
2013-12-22 01:11:00,19.0,16.0,29.95,NE,41,0.0,1.0,87,0.00,,,0.00,,2013-12-22 07:11:00,
2013-12-22 01:22:00,19.0,16.0,29.95,SW,232,0.0,5.0,87,0.00,,,0.00,,2013-12-22 07:22:00,
2013-12-22 01:42:00,19.0,16.0,29.95,NE,53,0.0,5.0,87,0.00,,,0.00,,2013-12-22 07:42:00,
2013-12-22 01:52:00,19.0,16.0,29.95,East,97,0.0,4.0,87,0.00,,,0.00,,2013-12-22 07:52:00,
2013-12-22 02:11:00,18.0,15.0,29.94,ESE,116,0.0,2.0,87,0.00,,,0.00,,2013-12-22 08:11:00,
2013-12-22 02:22:00,18.0,15.0,29.94,ESE,113,0.0,1.0,87,0.00,,,0.00,,2013-12-22 08:22:00,
2013-12-22 02:42:00,18.0,15.0,29.96,East,96,0.0,1.0,87,0.00,,,0.00,,2013-12-22 08:42:00,
2013-12-22 02:52:00,17.0,14.0,29.95,East,100,0.0,2.0,87,0.00,,,0.00,,2013-12-22 08:52:00,
2013-12-22 03:12:00,17.0,14.0,29.94,East,87,0.0,2.0,88,0.00,,,0.00,,2013-12-22 09:12:00,
2013-12-22 03:22:00,17.0,14.0,29.94,ENE,58,0.0,1.0,88,0.00,,,0.00,,2013-12-22 09:22:00,
2013-12-22 03:43:00,17.0,14.0,29.95,ENE,58,0.0,3.0,88,0.00,,,0.00,,2013-12-22 09:43:00,
2013-12-22 03:54:00,17.0,14.0,29.95,SW,228,0.0,3.0,87,0.00,,,0.00,,2013-12-22 09:54:00,
2013-12-22 04:13:00,17.0,14.0,29.94,SE,125,0.0,4.0,87,0.00,,,0.00,,2013-12-22 10:13:00,
2013-12-22 04:23:00,18.0,15.0,29.94,East,80,0.0,3.0,86,0.00,,,0.00,,2013-12-22 10:23:00,
2013-12-22 04:42:00,18.0,14.0,29.93,ESE,113,0.0,1.0,85,0.00,,,0.00,,2013-12-22 10:42:00,
2013-12-22 04:53:00,18.0,14.0,29.93,East,82,0.0,2.0,85,0.00,,,0.00,,2013-12-22 10:53:00,
2013-12-22 05:22:00,18.0,14.0,29.92,ESE,107,0.0,2.0,84,0.00,,,0.00,,2013-12-22 11:22:00,
2013-12-22 05:42:00,18.0,14.0,29.93,NE,36,0.0,2.0,83,0.00,,,0.00,,2013-12-22 11:42:00,
2013-12-22 05:52:00,18.0,13.0,29.94,NE,49,0.0,2.0,82,0.00,,,0.00,,2013-12-22 11:52:00,
2013-12-22 06:22:00,18.0,13.0,29.94,WSW,250,0.0,5.0,81,0.00,,,0.00,,2013-12-22 12:22:00,
2013-12-22 06:52:00,18.0,13.0,29.94,ENE,77,0.0,2.0,79,0.00,,,0.00,,2013-12-22 12:52:00,
2013-12-22 07:12:00,19.0,14.0,29.95,ENE,75,0.0,2.0,81,0.00,,,0.00,,2013-12-22 13:12:00,
2013-12-22 07:22:00,19.0,14.0,29.95,NE,46,0.0,3.0,81,0.00,,,0.00,,2013-12-22 13:22:00,
2013-12-22 07:42:00,19.0,14.0,29.95,SSW,197,0.0,1.0,82,0.00,,,0.00,,2013-12-22 13:42:00,
2013-12-22 07:52:00,20.0,15.0,29.93,ENE,74,0.0,6.0,82,0.00,,,0.00,,2013-12-22 13:52:00,
2013-12-22 08:12:00,20.0,16.0,29.93,East,97,0.0,2.0,83,0.00,,,0.00,,2013-12-22 14:12:00,
2013-12-22 08:22:00,20.0,16.0,29.94,SE,128,0.0,2.0,84,0.00,,,0.00,,2013-12-22 14:22:00,
2013-12-22 08:42:00,21.0,17.0,29.94,ENE,75,1.0,4.0,85,0.00,,,0.00,,2013-12-22 14:42:00,
2013-12-22 08:52:00,21.0,17.0,29.94,ESE,103,0.0,4.0,85,0.00,,,0.00,,2013-12-22 14:52:00,
2013-12-22 09:11:00,22.0,18.0,29.94,ENE,60,0.0,4.0,85,0.00,,,0.00,,2013-12-22 15:11:00,
2013-12-22 09:22:00,22.0,18.0,29.94,SE,143,0.0,3.0,85,0.00,,,0.00,,2013-12-22 15:22:00,
2013-12-22 09:43:00,22.0,19.0,29.94,NNE,12,0.0,4.0,87,0.00,,,0.00,,2013-12-22 15:43:00,
2013-12-22 09:53:00,22.0,19.0,29.94,West,264,0.0,2.0,88,0.00,,,0.00,,2013-12-22 15:53:00,
2013-12-22 10:13:00,22.0,19.0,29.95,East,84,0.0,6.0,88,0.00,,,0.00,,2013-12-22 16:13:00,
2013-12-22 10:23:00,22.0,19.0,29.96,East,80,1.0,11.0,88,0.00,,,0.00,,2013-12-22 16:23:00,
2013-12-22 10:42:00,22.0,19.0,29.97,East,86,1.0,6.0,88,0.00,,,0.00,,2013-12-22 16:42:00,
2013-12-22 10:52:00,22.0,19.0,29.97,WNW,294,0.0,4.0,89,0.00,,,0.00,,2013-12-22 16:52:00,
2013-12-22 11:22:00,22.0,19.0,29.97,NE,56,0.0,2.0,89,0.00,,,0.00,,2013-12-22 17:22:00,
2013-12-22 11:42:00,22.0,20.0,29.96,East,79,0.0,2.0,90,0.00,,,0.00,,2013-12-22 17:42:00,
2013-12-22 11:52:00,23.0,20.0,29.96,ENE,66,0.0,2.0,87,0.00,,,0.00,,2013-12-22 17:52:00,
2013-12-22 12:12:00,23.0,20.0,29.96,ESE,106,0.0,4.0,87,0.00,,,0.00,,2013-12-22 18:12:00,
2013-12-22 12:22:00,23.0,19.0,29.96,SSW,200,0.0,5.0,86,0.00,,,0.00,,2013-12-22 18:22:00,
2013-12-22 12:42:00,23.0,19.0,29.96,NE,53,0.0,7.0,86,0.00,,,0.00,,2013-12-22 18:42:00,
2013-12-22 12:52:00,24.0,20.0,29.95,ESE,104,0.0,5.0,85,0.00,,,0.00,,2013-12-22 18:52:00,
2013-12-22 13:12:00,24.0,20.0,29.95,ESE,104,0.0,2.0,84,0.00,,,0.00,,2013-12-22 19:12:00,
2013-12-22 13:22:00,24.0,20.0,29.95,NE,53,0.0,2.0,84,0.00,,,0.00,,2013-12-22 19:22:00,
2013-12-22 13:42:00,23.0,18.0,29.95,ESE,113,2.0,6.0,82,0.00,,,0.00,,2013-12-22 19:42:00,
2013-12-22 13:52:00,23.0,18.0,29.94,WNW,293,1.0,5.0,82,0.00,,,0.00,,2013-12-22 19:52:00,
2013-12-22 14:11:00,23.0,18.0,29.95,NNE,25,1.0,7.0,82,0.00,,,0.00,,2013-12-22 20:11:00,
2013-12-22 14:22:00,23.0,19.0,29.95,NE,39,0.0,4.0,83,0.00,,,0.00,,2013-12-22 20:22:00,
2013-12-22 14:53:00,23.0,18.0,29.97,NNW,332,0.0,4.0,82,0.00,,,0.00,,2013-12-22 20:53:00,
2013-12-22 15:12:00,23.0,17.0,29.97,NE,49,1.0,3.0,79,0.00,,,0.00,,2013-12-22 21:12:00,
2013-12-22 15:22:00,22.0,18.0,29.98,ENE,77,0.0,2.0,83,0.00,,,0.00,,2013-12-22 21:22:00,
2013-12-22 15:43:00,22.0,18.0,29.98,NE,41,0.0,3.0,83,0.00,,,0.00,,2013-12-22 21:43:00,
2013-12-22 15:53:00,22.0,17.0,29.99,NE,46,0.0,2.0,82,0.00,,,0.00,,2013-12-22 21:53:00,
2013-12-22 16:13:00,21.0,17.0,30.01,NE,47,0.0,1.0,84,0.00,,,0.00,,2013-12-22 22:13:00,
2013-12-22 16:23:00,21.0,17.0,30.02,SSW,200,0.0,3.0,84,0.00,,,0.00,,2013-12-22 22:23:00,
2013-12-22 16:42:00,21.0,17.0,30.03,SW,229,0.0,2.0,85,0.00,,,0.00,,2013-12-22 22:42:00,
2013-12-22 16:53:00,21.0,18.0,30.03,WSW,257,0.0,1.0,87,0.00,,,0.00,,2013-12-22 22:53:00,
2013-12-22 17:12:00,20.0,17.0,30.04,WSW,244,0.0,0.0,89,0.00,,,0.00,,2013-12-22 23:12:00,
2013-12-22 17:22:00,20.0,17.0,30.05,WSW,243,0.0,1.0,89,0.00,,,0.00,,2013-12-22 23:22:00,
2013-12-22 17:42:00,20.0,18.0,30.06,WSW,243,0.0,0.0,90,0.00,,,0.00,,2013-12-22 23:42:00,
2013-12-22 17:53:00,19.0,17.0,30.06,West,269,0.0,0.0,90,0.00,,,0.00,,2013-12-22 23:53:00,
2013-12-22 18:11:00,19.0,17.0,30.07,West,271,0.0,0.0,90,0.00,,,0.00,,2013-12-23 00:11:00,
2013-12-22 18:22:00,19.0,17.0,30.07,WSW,244,0.0,2.0,90,0.00,,,0.00,,2013-12-23 00:22:00,
2013-12-22 18:42:00,19.0,17.0,30.07,SE,132,0.0,1.0,90,0.00,,,0.00,,2013-12-23 00:42:00,
2013-12-22 18:52:00,19.0,17.0,30.08,West,269,0.0,1.0,90,0.00,,,0.00,,2013-12-23 00:52:00,
2013-12-22 19:11:00,19.0,17.0,30.08,SW,217,0.0,1.0,91,0.00,,,0.00,,2013-12-23 01:11:00,
2013-12-22 19:22:00,18.0,16.0,30.08,South,170,0.0,0.0,91,0.00,,,0.00,,2013-12-23 01:22:00,
2013-12-22 19:42:00,18.0,16.0,30.08,WNW,283,0.0,1.0,91,0.00,,,0.00,,2013-12-23 01:42:00,
2013-12-22 19:52:00,18.0,16.0,30.09,East,93,0.0,1.0,91,0.00,,,0.00,,2013-12-23 01:52:00,
2013-12-22 20:12:00,18.0,16.0,30.09,SW,225,0.0,1.0,90,0.00,,,0.00,,2013-12-23 02:12:00,
2013-12-22 20:21:00,18.0,16.0,30.09,West,267,0.0,1.0,90,0.00,,,0.00,,2013-12-23 02:21:00,
2013-12-22 20:42:00,18.0,16.0,30.09,West,263,0.0,0.0,90,0.00,,,0.00,,2013-12-23 02:42:00,
2013-12-22 20:52:00,18.0,16.0,30.09,WSW,257,0.0,0.0,90,0.00,,,0.00,,2013-12-23 02:52:00,
2013-12-22 21:12:00,18.0,16.0,30.09,ESE,113,0.0,1.0,90,0.00,,,0.00,,2013-12-23 03:12:00,
2013-12-22 21:22:00,17.0,15.0,30.09,SW,232,0.0,1.0,90,0.00,,,0.00,,2013-12-23 03:22:00,
2013-12-22 21:43:00,17.0,15.0,30.10,SW,226,0.0,0.0,90,0.00,,,0.00,,2013-12-23 03:43:00,
2013-12-22 21:53:00,17.0,15.0,30.10,WNW,298,0.0,1.0,90,0.00,,,0.00,,2013-12-23 03:53:00,
2013-12-22 22:13:00,17.0,15.0,30.10,West,273,0.0,0.0,91,0.00,,,0.00,,2013-12-23 04:13:00,
2013-12-22 22:23:00,16.0,14.0,30.10,WSW,255,0.0,0.0,91,0.00,,,0.00,,2013-12-23 04:23:00,
2013-12-22 22:43:00,16.0,14.0,30.10,WSW,253,0.0,0.0,91,0.00,,,0.00,,2013-12-23 04:43:00,
2013-12-22 22:52:00,16.0,14.0,30.11,WSW,253,0.0,0.0,91,0.00,,,0.00,,2013-12-23 04:52:00,
2013-12-22 23:12:00,15.0,13.0,30.11,NNW,327,0.0,1.0,91,0.00,,,0.00,,2013-12-23 05:12:00,
2013-12-22 23:23:00,14.0,12.0,30.11,NNW,327,0.0,0.0,92,0.00,,,0.00,,2013-12-23 05:23:00,
2013-12-22 23:43:00,14.0,12.0,30.12,WSW,243,0.0,0.0,93,0.00,,,0.00,,2013-12-23 05:43:00,
2013-12-22 23:52:00,14.0,12.0,30.13,WSW,243,0.0,0.0,92,0.00,,,0.00,,2013-12-23 05:52:00,